Flag for Germany Weather past 2 weeks in Münster, North Rhine-Westphalia, Germany

43 °F

Light rain. Overcast.

Feels Like: 34 °F
Forecast: 43 / 52 °F
Wind: 20 mph from Southwest

Location: Muenster / Osnabrueck

Current Time: Nov 29, 2015 at 12:54:29 AM

Latest Report: Nov 29, 2015 at 12:20 AM

Visibility: N/A

Pressure: 29.71 "Hg

Humidity: 87%

Dew point: 39 °F

Location of MünsterLocation

Historic Weather in Münster — Graph


Münster temperature yesterday

Maximum temperature yesterday: 45 °F (at 10:50 AM)
Minimum temperature yesterday: 37 °F (at 4:20 AM)
Average temperature yesterday: 42 °F

Past Weeks' High & Low Weather Summary

High61 °F (Nov 17, 9:50 PM)100% (Nov 15, 4:50 AM)30.21 "Hg (Nov 15, 4:50 AM)
Low28 °F (Nov 27, 12:20 AM)57% (Nov 24, 12:20 PM)29.36 "Hg (Nov 21, 3:50 AM)
Average45 °F85%29.82 "Hg
* Reported Nov 13 11:20 PM — Nov 28 11:50 PM, Münster, Weather by CustomWeather, © 2015

Note: Actual official high and low records may vary slightly from our data, if they occured in-between our weather recording intervals... More about our weather records


Münster weather history for previous 24 hours

Time TempWeatherWind HumidityBarometerVisibility
11:50 PM
Sat, Nov 28
43 °FLight rain. Overcast.16 mph81%29.74 "HgN/A
11:20 PM45 °FPassing clouds.18 mph76%29.74 "HgN/A
10:50 PM43 °FPassing clouds.20 mph81%29.77 "HgN/A
10:20 PM43 °FLight rain. Passing clouds.17 mph81%29.80 "HgN/A
9:20 PM43 °FLight rain. Mostly cloudy.18 mph81%29.83 "HgN/A
8:50 PM43 °FLight rain. Mostly cloudy.16 mph76%29.83 "HgN/A
8:20 PM43 °FLight rain. Mostly cloudy.16 mph71%29.86 "HgN/A
7:50 PM43 °FMostly cloudy.13 mph71%29.86 "HgN/A
7:20 PM43 °FPassing clouds.14 mph71%29.86 "HgN/A
6:50 PM43 °FPassing clouds.13 mph71%29.86 "HgN/A
6:20 PM43 °FPassing clouds.14 mph71%29.89 "HgN/A
5:50 PM43 °FPassing clouds.15 mph71%29.89 "HgN/A
5:20 PM43 °FPartly cloudy.13 mph71%29.89 "HgN/A
4:50 PM43 °FPassing clouds.12 mph71%29.89 "HgN/A
4:20 PM43 °FScattered clouds.12 mph71%29.89 "HgN/A
3:50 PM43 °FPassing clouds.12 mph71%29.89 "HgN/A
3:20 PM45 °FPassing clouds.13 mph71%29.89 "HgN/A
2:50 PM45 °FScattered clouds.14 mph71%29.89 "HgN/A
2:20 PM45 °FPassing clouds.18 mph71%29.89 "HgN/A
1:50 PM45 °FScattered clouds.18 mph71%29.89 "HgN/A
1:20 PM45 °FPassing clouds.21 mph71%29.86 "HgN/A
12:50 PM45 °FPassing clouds.20 mph71%29.86 "HgN/A
12:20 PM45 °FPassing clouds.18 mph71%29.86 "HgN/A
11:50 AM45 °FPassing clouds.17 mph76%29.83 "HgN/A
11:20 AM45 °FPassing clouds.16 mph76%29.83 "HgN/A
10:50 AM45 °FPassing clouds.15 mph76%29.83 "HgN/A
10:20 AM43 °FPassing clouds.15 mph87%29.80 "HgN/A
9:50 AM41 °FPassing clouds.14 mph93%29.80 "HgN/A
9:20 AM41 °FScattered clouds.13 mph93%29.80 "HgN/A
8:50 AM41 °FPartly sunny.12 mph93%29.77 "HgN/A
7:20 AM41 °FPassing clouds.14 mph93%29.71 "Hg4 mi
6:50 AM41 °FLight rain. Passing clouds.14 mph93%29.68 "HgN/A
6:20 AM41 °FPassing clouds.14 mph93%29.65 "HgN/A
5:50 AM39 °FPassing clouds.14 mph93%29.62 "Hg4 mi
5:20 AM39 °FPassing clouds.15 mph93%29.65 "Hg4 mi
4:50 AM39 °FPassing clouds.12 mph93%29.62 "Hg4 mi
4:20 AM37 °FPassing clouds.13 mph93%29.62 "Hg4 mi
3:50 AM39 °FPassing clouds.14 mph87%29.65 "Hg2 mi
3:20 AM39 °FPassing clouds.12 mph81%29.65 "HgN/A
2:50 AM39 °FPassing clouds.13 mph81%29.68 "HgN/A
2:20 AM39 °FPassing clouds.12 mph75%29.68 "HgN/A
12:50 AM39 °FPassing clouds.13 mph75%29.74 "HgN/A
Weather by CustomWeather, © 2015

See weather overviewHow to use our weather pages